STARLINK-36941, 67991

Orbit data source: Space-Track

STARLINK-36941, 67991 is a payload satellite owned by SpaceX/Seattle (US) in LEO that was launched on Fri, 27 Feb 2026 UTC via an FALCON 9 launch vehicle from the Air Force Eastern Test Range (AFETR). Payload-class satellites include a variety of spacecraft equipped with specific instruments for various scientific and technological missions. These include communications satellites like Starlink; space stations such as the ISS; scientific satellites like the Hubble; Earth observation satellites from companies like Planet Labs, Umbra, and HawkEye 360; GPS; miniature CubeSats for education and research; and military/defense satellites.

Loading next visibility...
Identifier
67991, 2026-039F
Orbit
LEO
Country
Flag of USUS
Related business
Manufacturer
SpaceX/Seattle
Mission
Operational Commercial Communications
Bus & Motor
STARLINK V2MO, Unknown motor
Mass
575 kg wet, ~530 kg dry
Launch date (UTC)
2026-02-27 (2 months ago)
Launch vehicle
FALCON 9
Launch site
Air Force Eastern Test Range (AFETR)
Object type
Payload
Rocket body
Debris
Shape & HBR
Box + 2 Pan, 17.7 m
Radar Cross Section
36.964 m²

Expand to show TLE details & history
Last TLE update: 7 hours ago

TLE from 7 hours ago
0 STARLINK-36941
1 67991U 26039F   26112.18423626  .00010636  00000-0  39534-3 0  9999
2 67991  42.9982 163.4664 0001199 280.3093  79.7623 15.27591139  8356
Epoch: 2026-04-22T04:25Z
TLE epoch observation values (Epoch: 2026-04-22T04:25:18.012Z)
Latitude
-0.00006°
Longitude
-113.10803°
Altitude
482.645 km
Speed
7.626 km/s
True Right ascension
10h 53m 51s
True Declination
0° 00' 00"
Sunlit
Object was in full shadow at epoch
Visualization orbit readout
Latitude
Unknown
Longitude
Unknown
Altitude
Unknown
Speed
Unknown
Apparent Right ascension
Unknown
Apparent Declination
Unknown
Sunlit
N/A
Visualization observer readout
Local Sidereal Time
18:14:44
Azimuth
Unknown
Elevation
Unknown
Doppler factor
Unknown
Orbital elements
Apogee altitude
485.784 km
Perigee altitude
484.138 km
Semi-major axis
6,863.098 km
Eccentricity
0.00012
Inclination
42.9982°
RAAN
163.4664°
Arg. of periapsis
280.3093°
True anomaly
79.77582°
Mean anomaly
79.7623°
Eccentric anomaly
79.76906°
Mean motion
3.81736 °/min
Orbital period
94.31 mins
BSTAR
0.00039534
Loading maneuver chart data...
Computing Atmospheric mass density...
Loading historical data...
Loading historical data...
Loading historical data...
Loading historical data...
Loading historical data...
Loading historical data...
Loading historical data...

Documentation

Showing up to 5 results
|